Find Starlink 33987

NORAD ID: 63873 Int'l Des: 2025-094 Owner: SPXS Country: US Constellation: starlink operational
LEOCIRCULAR

Live Position

Loading 3D Globe...

About Starlink 33987

Description loading...

Upcoming Passes

Passes for default location (London). Set your location on the main map for personalized predictions.

Altitude History

Loading altitude history...

Two-Line Element Set

1 63873U 25094K 26105.46879679 .00002598 00000-0 22540-3 0 9997
2 63873 70.0007 141.6745 0003506 271.0619 89.0138 14.98337588 52711
Epoch: Apr 15, 2026 • Age: 15 hours

Current Status

Altitude 585.0 km
Velocity 7.57 km/s
Sub-Earth Point 65.36°N, 42.07°W
Launch Date May 10, 2025
Age 0.9 years
Type internet

Technical Details

Classification Payload
Mass 575.00 kg
Dry Mass 530.00 kg
Total Mass 575.00 kg
Length 0.30 m
Diameter 4.10 m
Span 29.00 m
Shape Box + pan
Manufacturer SPXS
Bus Type Starlink V2MO
Phase Status In Orbit
Owner/State SPXS/US

Most Searched